Terminal Aerodrome Forecast
Issued by NWS Des Moines, IA

Home | Current Version | Previous Version | Text Only | Print | Product List | Glossary On
Versions: 1 2 3 4 5 6 7 8 9 10 11 12 13 14 15 16 17 18 19 20 21 22 23 24 25 26 27 28 29 30 31 32 33 34 35
000
FTUS43 KDMX 202320
TAFDSM
TAF
KDSM 202320Z 2100/2124 17009KT P6SM FEW040 BKN120
     FM210600 14007KT P6SM VCSH BKN060
     FM211000 15008KT P6SM SCT060 BKN100
     FM211500 20012KT P6SM OVC100=

USA.gov is the U.S. government's official web portal to all federal, state and local government web resources and services.